Jackson-Evers International Airport

Airport
ICAO code: 
KJAN
Summary
ICAO Region: 
NAM
Territory: 
Location: 
Jackson, Mississippi,
Coordinates: 
Aerial View: 
32° 18' 36.355" N, 90° 4' 30.53" W
Airport LOS: 
Parallel Runway Operation
Metar
Observation
KJAN 240654Z AUTO 18004KT 10SM CLR 01/M04 A3003 RMK AO2 SLP170 T00111039
Station
Jackson, Jackson International Airport
Date/Time
2022-01-24 06:54:00
Wind direction
180°
Wind speed
04 kts
Lowest cloud amount
n/a
Temperature
1.1°C
Dew point
-3.9°C
Humidity
69%
Weather condition
n/a

Description

Jackson-Evers International Airport is a public-use, joint civil-military (ANG) airport located 9 km east of the central business district of Jackson, Mississippi.

Climatology

Humid “subtropical” climate (Köppen climate classification Cfa) - characterized by hot, humid summers and cool winters. Significant amounts of precipitation occur in all seasons in most areas. Winter rainfall (and sometimes snowfall) is associated with large storms that the westerlies steer from west to east. Most summer rainfall occurs during thunderstorms and occasional tropical storms (hurricanes).

Runways

Designator Length Width Surface Rops
16L/34R 2591 46 ASP Yes/Yes
16R/34L 2591 46 ASP Yes/Yes
Airport map: 
Aerial View: 

SKYbrary Partners:

Safety knowledge contributed by: